Location: Andrest
(43.3200°N, 0.0641°E)
Time: 10:25:24
(UTC+00:00)

CZ-2C R/B - Pass Details

Date: 01 December 2020
Orbit: 705 x 907 km, 98.1° (Epoch: 23 January)

Event Time Altitude Azimuth Distance (km) Brightness Sun altitude
Rises 17:14:51 0° 123° (ESE) 3,212 5.9 -9.0°
Reaches altitude 10° 17:17:51 10° 104° (ESE) 2,258 5.0 -9.5°
Maximum altitude 17:21:05 18° 63° (ENE) 1,751 4.2 -10.0°
Drops below altitude 10° 17:24:17 10° 21° (NNE) 2,211 5.0 -10.6°
Sets 17:27:09 0° 3° (N) 3,119 5.9 -11.1°
